Find Starlink 31844

NORAD ID: 60583 Int'l Des: 2024-150 Owner: SPXS Country: US Constellation: starlink operational
LEOCIRCULAR

实时位置

正在加载3D地球...

关于 Starlink 31844

正在加载描述...

即将过境

Passes for default location (London). Set your location on the main map for personalized predictions.

高度历史

Loading altitude history...

两行轨道根数

1 60583U 24150A 26130.38374641 .00001804 00000-0 69864-4 0 9992
2 60583 53.1619 19.9964 0001241 62.7023 297.4105 15.31702697 97493
Epoch: May 10, 2026 • Age: 14 hours

当前状态

高度 473.4 km
速度 7.63 km/s
星下点 -10.65°S, 151.76°E
发射日期 Aug 20, 2024
运行时间 1.7 years
类型 internet

技术详情

分类 Payload
质量 730.00 kg
干质量 700.00 kg
总质量 730.00 kg
长度 0.30 m
直径 4.10 m
跨度 29.00 m
形状 Box + pan
制造商 SPXS
平台类型 Starlink V2M
阶段状态 In Orbit
所有者/国家 SPXS/US

Most Searched